Tracking 30995 objects as of 5-Jul-2025
HD Live streaming from Space Station
objects crossing your sky now

QUIKSCAT

Track QUIKSCAT now!
10-day predictions
QUIKSCAT is classified as:


NORAD ID: 25789
Int'l Code: 1999-034A
Perigee: 661.3 km
Apogee: 795.4 km
Inclination: 98.3 °
Period: 99.2 minutes
Semi major axis: 7099 km
RCS: 2.9895 m2 (large)
Launch date: June 20, 1999
Source: United States (US)
Launch site: AIR FORCE WESTERN TEST RANGE (AFWTR)

Detailed snapshots of the winds swirling above the world's oceans.
Your satellite tracking list
OBJECT B
Track 1 satellite(s)




NASA's NSSDC Master Catalog

Two Line Element Set (TLE):
1 25789U 99034A   25185.94627187  .00000189  00000-0  56766-4 0  9993
2 25789  98.3180  66.0828 0094455 267.9648  91.0728 14.51359948362143
Source of the keplerian elements: AFSPC